When you browse on this site, cookies collect data to enhance your experience and personalize the content and advertising you see.
Visit our Privacy Policy to learn more. By continuing to use the site, you agree to this use of cookies and data.
  • Em Portugal
  • Lista de países
  • Para 7 dias
  • Temperatura da água
  • Mapas de satélite
  • Mapa do tempo
  • Widgets de tempo
  • user-avatar
    Iniciar Sessão

    Previsão horária em Jodlowka

    Hoje, 18 Fevereiro, Segunda-feira

    Tempo Temperatura Precipitação Vento Pressão Humidade
    00:00 +5°C° 0 mm 1 m/s 764 mmHg 94%
    01:00 +3°C° 0 mm 0 m/s 764 mmHg 95%
    02:00 +2°C° 0 mm 0 m/s 763 mmHg 95%
    03:00 +2°C° 0 mm 0 m/s 763 mmHg 95%
    04:00 +2°C° 0 mm 0 m/s 763 mmHg 95%
    05:00 +3°C° 0 mm 1 m/s 763 mmHg 95%
    06:00 +3°C° 0 mm 1 m/s 763 mmHg 95%
    07:00 +3°C° 0 mm 1 m/s 763 mmHg 95%
    08:00 +3°C° 0 mm 2 m/s 763 mmHg 92%
    09:00 +4°C° 0 mm 2 m/s 763 mmHg 89%
    10:00 +6°C° 0 mm 2 m/s 763 mmHg 86%
    11:00 +7°C° 0 mm 3 m/s 763 mmHg 82%
    12:00 +8°C° 0 mm 3 m/s 762 mmHg 77%
    13:00 +8°C° 0 mm 4 m/s 762 mmHg 73%
    14:00 +8°C° 0 mm 4 m/s 762 mmHg 75%
    15:00 +8°C° 0 mm 4 m/s 761 mmHg 77%
    16:00 +8°C° 0 mm 3 m/s 761 mmHg 79%
    17:00 +6°C° 0 mm 4 m/s 761 mmHg 82%
    18:00 +6°C° 0 mm 4 m/s 760 mmHg 86%
    19:00 +5°C° 0 mm 4 m/s 760 mmHg 89%
    20:00 +4°C° 0 mm 4 m/s 760 mmHg 89%
    21:00 +4°C° 0 mm 4 m/s 759 mmHg 89%
    22:00 +3°C° 0 mm 4 m/s 759 mmHg 88%
    23:00 +3°C° 0 mm 4 m/s 759 mmHg 88%

    Amanhã, 19 Fevereiro, Terça-feira

    Tempo Temperatura Precipitação Vento Pressão Humidade
    00:00 +3°C° 0 mm 3 m/s 759 mmHg 87%
    01:00 +2°C° 0 mm 3 m/s 758 mmHg 86%
    02:00 +2°C° 0 mm 3 m/s 758 mmHg 85%
    03:00 +1°C° 0 mm 4 m/s 757 mmHg 84%
    04:00 0°C° 0 mm 4 m/s 757 mmHg 83%
    05:00 0°C° 0 mm 4 m/s 756 mmHg 83%
    06:00 0°C° 0 mm 4 m/s 756 mmHg 82%
    07:00 0°C° 0 mm 4 m/s 755 mmHg 81%
    08:00 +1°C° 0 mm 5 m/s 755 mmHg 77%
    09:00 +3°C° 0 mm 6 m/s 755 mmHg 73%
    10:00 +4°C° 0 mm 6 m/s 754 mmHg 70%
    11:00 +5°C° 0 mm 6 m/s 754 mmHg 68%
    12:00 +7°C° 0 mm 6 m/s 754 mmHg 66%
    13:00 +8°C° 0 mm 6 m/s 754 mmHg 65%
    14:00 +8°C° 0 mm 6 m/s 754 mmHg 68%
    15:00 +8°C° 0 mm 5 m/s 754 mmHg 72%
    16:00 +8°C° 0 mm 4 m/s 753 mmHg 76%
    17:00 +7°C° 0.3 mm 4 m/s 754 mmHg 79%
    18:00 +6°C° 0.3 mm 4 m/s 754 mmHg 82%
    19:00 +5°C° 0.3 mm 4 m/s 754 mmHg 85%
    20:00 +5°C° 0 mm 4 m/s 754 mmHg 85%
    21:00 +4°C° 0 mm 4 m/s 754 mmHg 86%
    22:00 +4°C° 0 mm 4 m/s 754 mmHg 86%
    23:00 +4°C° 0 mm 4 m/s 754 mmHg 85%

    Depois de amanhã, 20 Fevereiro, Quarta-feira

    Tempo Temperatura Precipitação Vento Pressão Humidade
    00:00 +3°C° 0 mm 5 m/s 754 mmHg 85%
    01:00 +3°C° 0 mm 5 m/s 754 mmHg 84%
    02:00 +3°C° 0 mm 5 m/s 754 mmHg 83%
    03:00 +3°C° 0 mm 5 m/s 754 mmHg 83%
    04:00 +2°C° 0 mm 5 m/s 754 mmHg 82%
    05:00 +2°C° 0.1 mm 5 m/s 755 mmHg 82%
    06:00 +2°C° 0.1 mm 5 m/s 755 mmHg 82%
    07:00 +2°C° 0.1 mm 5 m/s 755 mmHg 82%
    08:00 +3°C° 0.1 mm 6 m/s 756 mmHg 79%
    09:00 +3°C° 0.1 mm 7 m/s 756 mmHg 75%
    10:00 +4°C° 0.1 mm 7 m/s 756 mmHg 72%
    11:00 +4°C° 0 mm 7 m/s 757 mmHg 70%
    12:00 +4°C° 0 mm 7 m/s 757 mmHg 68%
    13:00 +5°C° 0 mm 7 m/s 757 mmHg 66%
    14:00 +5°C° 0 mm 7 m/s 757 mmHg 68%
    15:00 +4°C° 0 mm 6 m/s 758 mmHg 69%
    16:00 +4°C° 0 mm 6 m/s 758 mmHg 71%
    17:00 +5°C° 0 mm 5 m/s 758 mmHg 74%
    18:00 +3°C° 0 mm 5 m/s 759 mmHg 78%
    19:00 +4°C° 0 mm 4 m/s 759 mmHg 82%
    20:00 +4°C° 0 mm 3 m/s 759 mmHg 84%
    21:00 +4°C° 0 mm 3 m/s 759 mmHg 86%
    22:00 +3°C° 0 mm 3 m/s 759 mmHg 88%
    23:00 +4°C° 0.2 mm 3 m/s 759 mmHg 90%

    21 Fevereiro, Quinta-feira

    Tempo Temperatura Precipitação Vento Pressão Humidade
    00:00 +4°C° 0.2 mm 3 m/s 759 mmHg 92%
    01:00 +4°C° 0.2 mm 3 m/s 759 mmHg 93%
    02:00 +4°C° 0.6 mm 3 m/s 759 mmHg 93%
    03:00 +4°C° 0.6 mm 3 m/s 759 mmHg 93%
    04:00 +4°C° 0.6 mm 4 m/s 758 mmHg 93%
    05:00 +4°C° 0.4 mm 4 m/s 758 mmHg 92%
    06:00 +4°C° 0.4 mm 4 m/s 758 mmHg 92%
    07:00 +4°C° 0.4 mm 4 m/s 758 mmHg 92%
    08:00 +4°C° 0.9 mm 3 m/s 758 mmHg 92%
    09:00 +4°C° 0.9 mm 3 m/s 759 mmHg 93%
    10:00 +5°C° 0.9 mm 2 m/s 759 mmHg 93%
    11:00 +5°C° 0.2 mm 3 m/s 759 mmHg 91%
    12:00 +5°C° 0.2 mm 3 m/s 759 mmHg 89%
    13:00 +7°C° 0.2 mm 3 m/s 759 mmHg 87%
    14:00 +7°C° 0 mm 3 m/s 760 mmHg 88%
    15:00 +6°C° 0 mm 2 m/s 760 mmHg 89%
    16:00 +6°C° 0 mm 2 m/s 761 mmHg 90%
    17:00 +4°C° 0.1 mm 3 m/s 762 mmHg 90%
    18:00 +3°C° 0.1 mm 3 m/s 763 mmHg 89%
    19:00 +1°C° 0.1 mm 4 m/s 763 mmHg 88%
    20:00 +1°C° 0 mm 3 m/s 764 mmHg 85%
    21:00 +1°C° 0 mm 3 m/s 765 mmHg 82%
    22:00 0°C° 0 mm 3 m/s 766 mmHg 78%
    23:00 +1°C° 0 mm 2 m/s 767 mmHg 76%

    22 Fevereiro, Sexta-feira

    Tempo Temperatura Precipitação Vento Pressão Humidade
    00:00 -1°C° 0 mm 2 m/s 767 mmHg 74%
    01:00 -1°C° 0 mm 2 m/s 768 mmHg 72%
    02:00 -2°C° 0 mm 2 m/s 769 mmHg 70%
    03:00 -2°C° 0 mm 2 m/s 769 mmHg 67%
    04:00 -2°C° 0 mm 3 m/s 770 mmHg 65%
    05:00 -2°C° 0 mm 2 m/s 771 mmHg 64%
    06:00 -2°C° 0 mm 2 m/s 771 mmHg 62%
    07:00 -2°C° 0 mm 2 m/s 772 mmHg 61%
    08:00 -2°C° 0 mm 2 m/s 773 mmHg 56%
    09:00 -1°C° 0 mm 2 m/s 774 mmHg 50%
    10:00 0°C° 0 mm 3 m/s 775 mmHg 44%
    11:00 +2°C° 0 mm 2 m/s 775 mmHg 41%
    12:00 +2°C° 0 mm 2 m/s 775 mmHg 38%
    13:00 +3°C° 0 mm 2 m/s 775 mmHg 35%
    14:00 +4°C° 0 mm 1 m/s 776 mmHg 37%
    15:00 +4°C° 0 mm 1 m/s 776 mmHg 40%
    16:00 +3°C° 0 mm 0 m/s 776 mmHg 42%
    17:00 +3°C° 0 mm 1 m/s 776 mmHg 45%
    18:00 +2°C° 0 mm 1 m/s 777 mmHg 47%
    19:00 +1°C° 0 mm 2 m/s 777 mmHg 49%
    20:00 -1°C° 0 mm 2 m/s 777 mmHg 51%
    21:00 -1°C° 0 mm 2 m/s 777 mmHg 53%
    22:00 -1°C° 0 mm 3 m/s 777 mmHg 54%
    23:00 -1°C° 0 mm 3 m/s 777 mmHg 54%

    23 Fevereiro, Sábado

    Tempo Temperatura Precipitação Vento Pressão Humidade
    00:00 -2°C° 0 mm 4 m/s 777 mmHg 55%
    01:00 -2°C° 0 mm 4 m/s 777 mmHg 55%
    02:00 -2°C° 0 mm 4 m/s 776 mmHg 56%
    03:00 -2°C° 0 mm 4 m/s 776 mmHg 58%
    04:00 -2°C° 0 mm 4 m/s 776 mmHg 59%
    05:00 -2°C° 0 mm 4 m/s 775 mmHg 61%
    06:00 -2°C° 0 mm 4 m/s 775 mmHg 63%
    07:00 -2°C° 0 mm 4 m/s 775 mmHg 66%
    08:00 0°C° 0 mm 4 m/s 774 mmHg 69%
    09:00 +1°C° 0 mm 5 m/s 774 mmHg 72%
    10:00 +3°C° 0 mm 5 m/s 774 mmHg 75%
    11:00 +5°C° 0 mm 5 m/s 773 mmHg 77%
    12:00 +4°C° 0 mm 6 m/s 773 mmHg 79%
    13:00 +5°C° 0 mm 6 m/s 773 mmHg 81%
    14:00 +5°C° 0 mm 6 m/s 772 mmHg 83%
    15:00 +6°C° 0 mm 5 m/s 772 mmHg 84%
    16:00 +6°C° 0 mm 5 m/s 771 mmHg 85%
    17:00 +6°C° 0 mm 4 m/s 771 mmHg 87%
    18:00 +5°C° 0 mm 4 m/s 771 mmHg 88%
    19:00 +4°C° 0 mm 3 m/s 771 mmHg 89%
    20:00 +4°C° 0 mm 3 m/s 771 mmHg 89%
    21:00 +4°C° 0 mm 3 m/s 771 mmHg 88%
    22:00 +3°C° 0 mm 3 m/s 771 mmHg 88%
    23:00 +3°C° 0 mm 3 m/s 770 mmHg 88%
    Mostrar mais